Voltar ao catálogo

STARLINK-11279

AtivoComunicaçõesVLEO
NORAD 61206·PAYLOAD·🇺🇸 United States

Lançado Sep 20, 2024 de Vandenberg Space Force Base

Loading…

Próximas Passagens (próximas 24 horas)

TLE

AtualizadoSource: CelesTrak SupGP

Época: Sep 15, 2026, 02:20 UTC

1 61206C 24171G   26258.09770833  .00027963  00000+0  23038-3 0  2583
2 61206  53.1569 322.3376 0001191  83.8147 154.0197 15.69690428    13

Acompanhe STARLINK-11279 em tempo real com AllMySat

Download on the App Store